Orbital Elements at Epoch 2459000.5 (2020-May-31.0) TDB
Reference: JPL 18 (heliocentric ecliptic J2000)
Element | Value | Uncertainty (1-sigma) | Units |
e | .09430909783814702 | 3.8666e-08 | |
a | 2.324416898601389 | 1.1584e-08 | au |
q | 2.105203237894548 | 8.4761e-08 | au |
i | 5.023977695885088 | 3.6405e-06 | deg |
node | 98.9393526536725 | 4.6668e-05 | deg |
peri | 134.8379283973666 | 5.2223e-05 | deg |
M | 53.97780163961288 | 2.3273e-05 | deg |
tp | 2458806.419386973960 (2019-Nov-18.91938697) | 8.3642e-05 | TDB |
period | 1294.402857601734 3.54 | 9.676e-06 2.649e-08 | d yr |
n | .2781205232094489 | 2.079e-09 | deg/d |
Q | 2.543630559308229 | 1.2676e-08 | au |
|
| | Orbit Determination Parameters
Additional Information
|